Regional Weather Roundup
Issued by NWS

Home | Current Version | Previous Version | Graphics & Text | Print | Product List | Glossary Off
Versions: 1 2 3 4 5 6 7 8 9 10 11 12 13 14 15 16 17 18 19 20 21 22 23 24 25 26 27 28 29 30 31 32 33 34 35 36 37 38 39 40 41 42 43 44 45 46 47 48 49 50

000
ASUS44 KMEG 250210
RWRTN
TENNESSEE HOURLY STATE WEATHER ROUNDUP
NATIONAL WEATHER SERVICE MEMPHIS TN
900 PM CDT SUN JUL 24 2016

TNZ002-004-019-021-049-052-054-088>092-250300-
WEST TENNESSEE

CITY           SKY/WX    TMP DP  RH WIND       PRES   REMARKS
MEMPHIS INTL   CLOUDY    87  72  60 SE5       29.97R HX  93
NWS MEMPHIS      N/A     83 N/A N/A MISG        N/A
JACKSON        CLOUDY    78  77  96 CALM      29.98R
DYERSBURG      MOCLDY    82  77  83 MISG      29.96R HX  91
UNION CITY     CLEAR     82  81  94 CALM      29.96R HX  95
PARIS          CLEAR     81  75  83 SE5       29.99R
LEXINGTON      CLEAR     77  75  94 CALM      29.99S
$$

TNZ008-025-027-028-033-062-065-066-250300-
NORTH MIDDLE TENNESSEE

CITY           SKY/WX    TMP DP  RH WIND       PRES   REMARKS
NASHVILLE      CLOUDY    87  71  58 CALM      30.00S HX  93
CLARKSVILLE    CLOUDY    83  75  77 CALM      29.99R HX  90
SMYRNA         CLOUDY    83  74  74 CALM      30.01R
COOKEVILLE     CLEAR     81  77  89 CALM      30.04R
CROSSVILLE     CLOUDY    75  73  93 CALM      30.11R
$$

TNZ061-075-076-078-094-096-097-250300-
SOUTH MIDDLE TENNESSEE

CITY           SKY/WX    TMP DP  RH WIND       PRES   REMARKS
FAYETTEVILLE   CLEAR     77  73  88 CALM      30.04R
TULLAHOMA      CLEAR     79  70  73 CALM      30.06R
WINCHESTER     PTCLDY    75  73  94 SE3       30.05S
MCMINNVILLE    CLEAR     82  75  78 CALM      30.05R
COLUMBIA       CLEAR     82  82 100 CALM      30.01R HX  97
SHELBYVILLE    CLEAR     82  77  83 CALM      30.04R HX  91
$$

TNZ017-018-042-046-047-250300-
NORTHEAST TENNESSEE

CITY           SKY/WX    TMP DP  RH WIND       PRES   REMARKS
TRI CITIES     PTCLDY    80  69  69 CALM      30.08R
ELIZABETHTON   MOCLDY    75  72  88 CALM      30.09R
$$

TNZ012-013-036-069-073-074-250300-
CENTRAL EAST TENNESSEE

CITY           SKY/WX    TMP DP  RH WIND       PRES   REMARKS
KNOXVILLE      MOCLDY    86  71  60 W5        30.03R HX  91
OAK RIDGE      CLOUDY    85  73  67 W3        30.05R HX  91
GATLINBURG     CLEAR     79  70  73 CALM      30.04R
MORRISTOWN     PTCLDY    82  72  69 SW5       30.05S
$$

TNZ083-085-099-250300-
SOUTHEAST TENNESSEE

CITY           SKY/WX    TMP DP  RH WIND       PRES   REMARKS
CHATTANOOGA    PTCLDY    80  72  76 N3        30.04R
$$

SKY/WX REPORTED AS FAIR MEANS FEW OR NO CLOUDS BELOW
12 THOUSAND FEET.




USA.gov is the U.S. government's official web portal to all federal, state and local government web resources and services.